CDT,Max TemperatureF,Mean TemperatureF,Min TemperatureF,Max Dew PointF,MeanDew PointF,Min DewpointF,Max Humidity, Mean Humidity, Min Humidity, Max Sea Level PressureIn, Mean Sea Level PressureIn, Min Sea Level PressureIn, Max VisibilityMiles, Mean VisibilityMiles, Min VisibilityMiles, Max Wind SpeedMPH, Mean Wind SpeedMPH, Max Gust SpeedMPH,PrecipitationIn, CloudCover, Events, WindDirDegrees
2011-10-1,73,58,42,43,36,32,71,50,29,30.13,30.04,29.97,10,10,5,24,14,32,0.00,0,,175
2011-10-2,82,63,44,48,44,41,87,61,26,30.01,29.98,29.94,10,10,10,18,9,24,0.00,0,,166
2011-10-3,78,64,50,52,46,43,82,57,30,30.01,29.99,29.98,10,10,7,16,9,20,0.00,0,,162
2011-10-4,78,64,50,50,48,48,94,65,34,30.01,29.94,29.84,10,10,5,15,8,22,0.00,0,,124
2011-10-5,86,73,60,48,45,39,63,40,20,29.83,29.80,29.77,10,10,6,31,16,39,0.00,0,,171
2011-10-6,77,67,57,46,43,39,59,41,29,29.82,29.75,29.66,10,10,2,37,20,45,0.00,1,,151
2011-10-7,73,66,59,55,43,27,77,47,18,29.67,29.54,29.43,10,10,7,48,28,61,0.01,1,,196
2011-10-8,59,55,51,50,47,41,88,72,59,30.16,29.94,29.66,10,10,10,24,17,33,0.00,3,,276
2011-10-9,53,48,44,52,44,37,100,86,58,30.27,30.20,30.07,10,8,2,18,8,21,0.24,5,Rain,49
2011-10-10,57,54,50,57,53,50,100,97,88,29.95,29.82,29.75,10,10,6,18,12,23,0.00,6,Rain,180
2011-10-11,68,54,39,57,49,39,100,85,46,29.72,29.69,29.64,10,9,1,15,8,,0.00,0,Rain,168
2011-10-12,66,55,44,55,49,45,100,82,46,29.74,29.66,29.62,10,10,10,21,10,24,0.00,0,,274
2011-10-13,55,47,39,50,45,39,100,90,63,29.76,29.73,29.69,10,10,4,17,13,24,0.06,4,Rain,309
2011-10-14,50,47,44,46,43,37,100,88,62,29.87,29.81,29.74,10,10,2,26,12,33,0.04,7,Rain,316
2011-10-15,50,42,33,39,37,34,100,81,58,29.88,29.86,29.81,10,10,10,16,12,22,0.00,1,,293
2011-10-16,50,44,37,39,34,28,100,74,43,29.93,29.88,29.83,10,10,10,32,18,39,0.00,0,,296
2011-10-17,53,42,32,32,30,25,100,67,38,29.94,29.90,29.88,10,10,10,28,16,34,0.00,0,,303
2011-10-18,46,37,28,32,27,21,100,71,37,30.19,30.12,30.03,10,10,9,24,13,29,0.00,1,,334
2011-10-19,42,32,23,30,26,23,100,82,53,30.26,30.20,30.14,10,10,1,12,7,,0.06,0,Rain,12
2011-10-20,48,34,19,36,28,19,100,83,46,30.14,30.04,29.92,10,8,0,12,3,,0.00,0,Fog,190
2011-10-21,57,44,32,39,35,30,100,75,48,30.03,29.92,29.85,10,10,10,21,11,29,0.00,0,,280
2011-10-22,62,44,26,45,36,27,100,77,45,30.07,29.96,29.80,10,10,4,24,8,34,0.00,1,,205
2011-10-23,57,46,35,41,37,32,93,73,44,29.89,29.83,29.77,10,10,10,17,10,25,0.00,2,Rain,293
2011-10-24,50,39,28,41,36,28,100,84,62,30.01,29.97,29.90,10,10,3,14,3,16,0.00,1,,162
2011-10-25,48,44,39,41,36,32,100,78,54,30.06,30.01,29.98,10,10,6,8,5,,0.00,5,Rain,17
2011-10-26,46,38,28,39,36,28,100,90,61,30.14,30.09,30.04,10,9,0,22,9,32,0.00,4,Fog-Rain,318
2011-10-27,48,36,23,36,28,23,100,81,37,30.05,29.99,29.91,10,10,8,17,8,21,0.00,1,,224
2011-10-28,48,38,28,36,28,25,100,74,43,30.06,30.02,29.95,10,10,10,21,13,29,0.00,0,,295
2011-10-29,46,34,21,32,25,21,100,73,43,30.01,29.88,29.75,10,10,8,22,7,26,0.00,2,Rain,170
2011-10-30,39,37,35,37,34,32,100,87,75,29.96,29.84,29.76,10,10,5,22,15,28,0.00,7,Rain,309
2011-10-31,57,42,28,36,31,27,100,71,33,29.95,29.79,29.66,10,10,10,28,11,33,0.00,2,,192